x

Upper Potomac, Md (44061) Weather Station

11:50am - Sun 26th Apr 2015 All times are EDT. -4 hours from GMT.

  • Wind
    4mph, 7mph gusts
  • Air Temp 54°f
  • Sea Pressure 1006.4mb
  • Upper Potomac, Md
  • Upper Potomac, Md

More Historic Weather Station data

Upgrade to MSW Pro to gain access to the past 30 days of data for over 8000 Wavebouys and Weather Stations around the globe.

Join Pro

Comparision Forecast

View Surf forecast
   
Sun 04/26 11:50am 4 7 mph 1006.4mb - 54f
11:40am 4 7 mph 1006.5mb - 54f
11:30am 4 7 mph 1006.4mb - 53f
11:20am 7 9 mph 1006.4mb - 53f
11:10am 7 11 mph 1006.3mb - 53f
11:00am 7 9 mph 1006.2mb 55f 52f
10:50am 4 7 mph 1006mb - 52f
10:40am 4 9 mph 1006mb - 51f
10:30am 4 9 mph 1005.9mb - 51f
10:20am 4 9 mph 1005.9mb - 51f
10:10am 4 9 mph 1005.9mb - 50f
10:00am 7 9 mph 1005.8mb 54f 50f
9:50am 7 11 mph 1005.9mb - 50f
9:40am 7 11 mph 1005.8mb - 49f
9:30am 7 11 mph 1005.8mb - 49f
9:20am 7 9 mph 1005.8mb - 48f
9:10am 7 11 mph 1005.6mb - 48f
9:00am 7 9 mph 1005.4mb 54f 47f
8:50am 7 11 mph 1005.4mb - 47f
8:40am 9 13 mph 1005.3mb - 47f
8:30am 7 11 mph 1005.2mb - 47f
8:20am 4 9 mph 1005.1mb - 47f
8:10am 4 9 mph 1005.1mb - 46f
8:00am 4 7 mph 1005.1mb 54f 45f
7:50am 4
mph
1005.1mb - 45f
7:40am 4 7 mph 1005.1mb - 45f
7:30am 4 7 mph 1005.2mb - 45f
7:20am 4 7 mph 1005.2mb - 44f
7:10am 4 7 mph 1005.2mb - 44f
7:00am 4 7 mph 1005mb 54f 44f
6:50am 4 9 mph 1005mb - 44f
6:40am 7 9 mph 1005mb - 44f
6:30am 4 9 mph 1005mb - 44f
6:20am 4 7 mph 1005mb - 44f
6:10am 4 7 mph 1005mb - 44f
6:00am 4 7 mph 1004.8mb 54f 44f
5:50am 4 7 mph 1004.7mb - 44f
5:40am 7 9 mph 1004.8mb - 44f
5:30am 7 11 mph 1004.7mb - 44f
5:20am 9 11 mph 1004.6mb - 44f
5:10am 9 13 mph 1004.7mb - 44f
5:00am 9 11 mph 1004.7mb 54f 44f
4:50am 7 9 mph 1004.6mb - 44f
4:40am 7 9 mph 1004.7mb - 44f
4:30am 4 9 mph 1004.8mb - 44f
4:20am 7 9 mph 1004.9mb - 44f
4:10am 4 7 mph 1005mb - 44f
4:00am 4
mph
1005.2mb 54f 44f
3:50am 4 7 mph 1005mb - 44f
3:40am 4 7 mph 1004.9mb - 44f
3:30am 4 7 mph 1004.8mb - 44f
3:20am 4 7 mph 1004.8mb - 44f
3:10am 4 7 mph 1004.9mb - 44f
3:00am 2 7 mph 1004.8mb 55f 44f
2:50am  -  mph 1004.6mb - 44f
2:40am 2 7 mph 1004.8mb - 45f
2:30am 7 13 mph 1004.7mb - 45f
2:20am 9 11 mph 1004.6mb - 44f
2:10am 9 11 mph 1004.8mb - 44f
2:00am 7 9 mph 1005mb 54f 44f
1:50am 4 7 mph 1005.4mb - 44f
1:40am 4
mph
1005.6mb - 44f
1:30am  -  4 mph 1005.6mb - 44f
1:20am  -  2 mph 1005.7mb - 43f
1:10am 4 7 mph 1005.7mb - 43f
1:00am 7 9 mph 1005.9mb 55f 44f
12:50am 7 9 mph 1006.1mb - 44f
12:40am 4 7 mph 1006.4mb - 44f
12:30am 7 9 mph 1006.4mb - 44f
12:20am 7
mph
1006.3mb - 44f
12:10am 7 11 mph 1006.2mb - 44f
12:00am 9 11 mph 1006.4mb 54f 43f
Sat 04/25 11:50pm 9 11 mph 1006.6mb - 44f
11:40pm 9 11 mph 1006.8mb - 44f
11:30pm 9 13 mph 1006.9mb - 44f
11:20pm 11 13 mph 1007mb - 44f
11:10pm 9 13 mph 1006.9mb - 44f
11:00pm 9 11 mph 1006.9mb 54f 44f
10:50pm 7 13 mph 1007.3mb - 43f
10:40pm 7 9 mph 1007.6mb - 43f
10:30pm 7 11 mph 1007.8mb - 44f
10:20pm 7 11 mph 1007.7mb - 44f
10:10pm 4 9 mph 1007.6mb - 44f
10:00pm 4 7 mph 1007.5mb 54f 44f
9:50pm 4 7 mph 1007.3mb - 44f
9:40pm 7 11 mph 1007.1mb - 44f
9:30pm 7 9 mph 1007mb - 44f
9:20pm 4 7 mph 1007mb - 44f
9:10pm 4 9 mph 1007.2mb - 44f
9:00pm 4 7 mph 1007.3mb 54f 44f
8:50pm 4 7 mph 1007.1mb - 44f
8:40pm 4 7 mph 1007mb - 44f
8:30pm 4 7 mph 1007.1mb - 44f
8:20pm 2 7 mph 1007.1mb - 44f
8:10pm 4 7 mph 1007.2mb - 44f
8:00pm 7 9 mph 1007.6mb 55f 45f
7:50pm 7 9 mph 1007.9mb - 45f
7:40pm 7 9 mph 1007.9mb - 45f
7:30pm 7 9 mph 1007.8mb - 45f
7:20pm 4 7 mph 1007.7mb - 45f
7:10pm 4 9 mph 1007.8mb - 45f
7:00pm 4 7 mph 1008mb 55f 46f
6:50pm 7 9 mph 1008.2mb - 46f
6:40pm 9 11 mph 1008.5mb - 46f
6:30pm 9 13 mph 1008.6mb - 47f
6:20pm 11 13 mph 1008.6mb - 47f
6:10pm 11 13 mph 1008.5mb - 48f
6:00pm 11 16 mph 1008.3mb 55f 48f
5:50pm 9 11 mph 1008.3mb - 49f
5:40pm 9 11 mph 1008.4mb - 49f
5:30pm 9 11 mph 1008.4mb - 49f
5:20pm 9 13 mph 1008.4mb - 50f
5:10pm 9 11 mph 1008.3mb - 50f
5:00pm 9 11 mph 1008.3mb 56f 50f
4:50pm 9 11 mph 1008.5mb - 50f
4:40pm 7 9 mph 1008.4mb - 50f
4:30pm 9
mph
1008.8mb - 50f
4:20pm 7 9 mph 1009.2mb - 50f
4:10pm 7 9 mph 1009.4mb - 50f
4:00pm 9 13 mph 1009.4mb 56f 50f
3:50pm 9 11 mph 1009.5mb - 50f
3:40pm 9 13 mph 1009.7mb - 50f
3:30pm 9 11 mph 1009.7mb - 50f
3:20pm 9 13 mph 1009.9mb - 50f
3:10pm 9 11 mph 1010.1mb - 51f
3:00pm 7 11 mph 1010.3mb 55f 51f
2:50pm 7 11 mph 1010.4mb - 50f
2:40pm 9 11 mph 1010.8mb - 50f
2:30pm 7 11 mph 1010.7mb - 50f
2:20pm 7 11 mph 1010.8mb - 50f
2:10pm 7 9 mph 1011.2mb - 50f
2:00pm 4 7 mph 1011.2mb 55f 50f
1:50pm 4 7 mph 1011.4mb - 50f
1:40pm 4 7 mph 1011.7mb - 50f
1:30pm 4 7 mph 1012mb - 49f
1:20pm 4 7 mph 1012.2mb - 49f
1:10pm 7 9 mph 1012.1mb - 49f
1:00pm 4 7 mph 1012.1mb 55f 49f
12:50pm 7 9 mph 1012.4mb - 49f
12:40pm 7 9 mph 1012.5mb - 49f
12:30pm 9 11 mph 1012.7mb - 49f
12:20pm 7 9 mph 1012.8mb - 49f
12:10pm 7 9 mph 1013mb - 49f
12:00pm 7 9 mph 1013.3mb 55f 49f
11:50am 7 11 mph 1013.6mb - 49f
11:40am 9 11 mph 1013.8mb - 49f
11:30am 9 11 mph 1013.8mb - 48f
11:20am 9 11 mph 1013.8mb - 48f
11:10am 7 11 mph 1013.9mb - 48f
11:00am 2 4 mph 1014.2mb 56f 48f
10:50am 2 4 mph 1014.4mb - 49f
10:40am  -  4 mph 1014.6mb - 49f
10:30am 2 4 mph 1014.6mb - 48f
10:20am 7 9 mph 1014.7mb - 48f
10:10am 4 9 mph 1014.7mb - 48f
10:00am 7 9 mph 1014.6mb 56f 48f
9:50am 7 11 mph 1014.7mb - 47f
9:40am 7 11 mph 1015mb - 47f
9:30am 4 7 mph 1015.2mb - 47f
9:20am 4 7 mph 1015.2mb - 47f
9:10am 4 7 mph 1015.3mb - 47f
9:00am 4 7 mph 1015.1mb 56f 47f
8:50am 4
mph
1015.1mb - 47f
8:40am 4 7 mph 1014.8mb - 47f
8:30am 4 7 mph 1014.9mb - 47f
8:20am 4 7 mph 1014.8mb - 47f
8:10am 4 7 mph 1014.9mb - 47f
8:00am 7 9 mph 1014.6mb 56f 47f
7:50am 4 9 mph 1014.7mb - 47f
7:40am 2 7 mph 1014.7mb - 46f
7:30am 4 7 mph 1014.6mb - 46f
7:20am 4 7 mph 1014.9mb - 46f
7:10am 7 9 mph 1014.6mb - 46f
7:00am 7 9 mph 1014.7mb 55f 46f
6:50am 7 9 mph 1015mb - 47f
6:40am 4 7 mph 1014.9mb - 47f
6:30am 7 9 mph 1014.5mb - 47f
6:20am 7 9 mph 1014.4mb - 47f
6:10am 7 11 mph 1014.4mb - 47f
6:00am 7 9 mph 1014.6mb 55f 48f
5:50am 9 16 mph 1014.7mb - 48f
5:40am 9 16 mph 1014.4mb - 49f
5:30am 7 9 mph 1014.3mb - 49f
5:20am 7 11 mph 1014.2mb - 50f
5:10am 4 7 mph 1014.2mb - 49f
5:00am 7 9 mph 1014.1mb 56f 49f
4:50am 4 7 mph 1014.1mb - 49f
4:40am 7
mph
1014.1mb - 50f
4:30am 7 9 mph 1014.1mb - 50f
4:20am 4 7 mph 1014.2mb - 49f
4:10am 2 4 mph 1014.3mb - 48f
4:00am 2 4 mph 1014.5mb 56f 48f
3:50am  -  4 mph 1014.4mb - 48f
3:40am 4 7 mph 1014.3mb - 48f
3:30am 4 7 mph 1014.2mb - 48f
3:20am 4 7 mph 1014.2mb - 48f
3:10am 2 4 mph 1014.4mb - 49f
3:00am 2 4 mph 1014.4mb 56f 49f
2:50am 2 4 mph 1014.2mb - 49f
2:40am 2 4 mph 1014.3mb - 49f
2:30am 2 4 mph 1014.5mb - 50f
2:20am 4
mph
1014.5mb - 49f
2:10am 4
mph
1014.6mb - 49f
2:00am 4 7 mph 1014.5mb 56f 50f
1:50am 4 7 mph 1014.4mb - 51f
1:40am 4
mph
1014.3mb - 52f
1:30am 4
mph
1014.3mb - 52f
1:20am 4 7 mph 1014.4mb - 52f
1:10am 4 7 mph 1014.3mb - 52f
1:00am 4 7 mph 1014mb 56f 51f
12:50am 4
mph
1014mb - 50f
12:40am 4 7 mph 1014mb - 51f
12:30am 4
mph
1013.9mb - 53f
12:20am 2 4 mph 1014mb - 53f
12:10am 2 4 mph 1014mb - 53f
12:00am 4
mph
1013.9mb 56f 54f
Fri 04/24 11:50pm 2 4 mph 1013.8mb - 55f
11:40pm 4 7 mph 1013.9mb - 54f
11:30pm 4 7 mph 1013.9mb - 53f
11:20pm 4 7 mph 1014mb - 51f
11:10pm 4 7 mph 1014mb - 51f
11:00pm 4
mph
1014mb 56f 52f
10:50pm 4
mph
1014.1mb - 54f
10:40pm 4 7 mph 1014.2mb - 55f
10:30pm 2 4 mph 1014.2mb - 56f
10:20pm 4
mph
1014.1mb - 56f
10:10pm 4 7 mph 1014.1mb - 56f
10:00pm 4 7 mph 1014.1mb 56f 56f
9:50pm 4 7 mph 1014mb - 56f
9:40pm 2 4 mph 1014mb - 56f
9:30pm 2
mph
1013.8mb - 57f
9:20pm  -  2 mph 1013.5mb - 57f
9:10pm 2 4 mph 1013.4mb - 58f
9:00pm 2 7 mph 1013.2mb 56f 58f
8:50pm 4 7 mph 1013.1mb - 58f
8:40pm 4 7 mph 1013.1mb - 58f
8:30pm 4 7 mph 1013mb - 58f
8:20pm 4 9 mph 1013mb - 58f
8:10pm 4 11 mph 1013mb - 58f
8:00pm 4 7 mph 1013mb 56f 59f
7:50pm 7 11 mph 1012.8mb - 59f
7:40pm 9 13 mph 1012.8mb - 59f
7:30pm 9 13 mph 1012.8mb - 60f
7:20pm 9 16 mph 1012.7mb - 60f
7:10pm 11 18 mph 1012.6mb - 60f
7:00pm 13 25 mph 1012.6mb 56f 60f
6:50pm 11 18 mph 1012.7mb - 60f
6:40pm 11 18 mph 1012.7mb - 60f
6:30pm 13 25 mph 1012.6mb - 60f
6:20pm 16 27 mph 1012.4mb - 60f
6:10pm 13 25 mph 1012.4mb - 60f
6:00pm 16 22 mph 1012.4mb 56f 60f
5:50pm 13 20 mph 1012.3mb - 60f
5:40pm 16 22 mph 1012.3mb - 60f
5:30pm 16 22 mph 1012.5mb - 60f
5:20pm 11 20 mph 1012.6mb - 60f
5:10pm 13 20 mph 1012.5mb - 59f
5:00pm 13 27 mph 1012.5mb 56f 59f
4:50pm 13 25 mph 1012.6mb - 59f
4:40pm 13 22 mph 1012.7mb - 59f
4:30pm 16 22 mph 1012.6mb - 58f
4:20pm 13 20 mph 1012.6mb - 58f
4:10pm 13 22 mph 1012.7mb - 58f
4:00pm 18 25 mph 1012.7mb 56f 57f
3:50pm 13 29 mph 1012.9mb - 57f
3:40pm 13 27 mph 1013mb - 57f
3:30pm 18 29 mph 1013.1mb - 56f
3:20pm 16 22 mph 1013.2mb - 56f
3:10pm 16 27 mph 1013.2mb - 56f
3:00pm 13 25 mph 1013.5mb 56f 55f
2:50pm 16 25 mph 1013.7mb - 55f
2:40pm 16 25 mph 1013.8mb - 54f
2:30pm 13 22 mph 1014mb - 54f
2:20pm 16 22 mph 1014.2mb - 53f
2:10pm 11 27 mph 1014.3mb - 53f
2:00pm 16 22 mph 1014.3mb 56f 53f
1:50pm 16 25 mph 1014.4mb - 52f
1:40pm 13 22 mph 1014.5mb - 52f
1:30pm 13 22 mph 1014.6mb - 51f
1:20pm 18 25 mph 1014.7mb - 51f
1:10pm 16 25 mph 1014.8mb - 51f
1:00pm 13 20 mph 1015mb 56f 51f
12:50pm 16 27 mph 1015mb - 50f
12:40pm 16 22 mph 1015.2mb - 50f
12:30pm 16 25 mph 1015.3mb - 49f
12:20pm 16 27 mph 1015.3mb - 49f
12:10pm 16 25 mph 1015.5mb - 49f
12:00pm 11 20 mph 1015.7mb 56f 48f
11:50am 11 18 mph 1015.8mb - 48f
11:40am 16 22 mph 1015.9mb - 48f
11:30am 16 25 mph 1016mb - 47f
11:20am 16 25 mph 1016.1mb - 47f
11:10am 16 25 mph 1016.3mb - 47f
11:00am 16 25 mph 1016.3mb 56f 46f
10:50am 16 25 mph 1016.3mb - 46f
10:40am 16 27 mph 1016.5mb - 46f
10:30am 16 22 mph 1016.5mb - 46f
10:20am 13 22 mph 1016.6mb - 45f
10:10am 16 22 mph 1016.7mb - 45f
10:00am 18 27 mph 1016.8mb 56f 44f
9:50am 11 25 mph 1016.8mb - 44f
9:40am 13 22 mph 1016.8mb - 44f
9:30am 13 25 mph 1016.9mb - 44f
9:20am 13 20 mph 1016.9mb - 44f
9:10am 11 22 mph 1016.9mb - 44f
9:00am 13 20 mph 1016.9mb 56f 43f
8:50am 13 25 mph 1017mb - 43f
8:40am 16 27 mph 1017mb - 43f
8:30am 11 18 mph 1016.9mb - 43f
8:20am 11 20 mph 1016.9mb - 43f
8:10am 13 22 mph 1017.1mb - 42f
8:00am 11 18 mph 1017.2mb 56f 42f
7:50am 9 18 mph 1017.1mb - 42f
7:40am 11 18 mph 1017mb - 42f
7:30am 11 20 mph 1016.9mb - 42f
7:20am 9 13 mph 1016.8mb - 42f
7:10am 9 13 mph 1016.7mb - 42f
7:00am 9 18 mph 1016.7mb 56f 42f
6:50am 9 13 mph 1016.6mb - 41f
6:40am 9 16 mph 1016.5mb - 41f
6:30am 9 16 mph 1016.4mb - 42f
6:20am 9 18 mph 1016.3mb - 42f
6:10am 9 13 mph 1016.2mb - 42f
6:00am 9 16 mph 1016.1mb 56f 42f
5:50am 11 22 mph 1016mb - 42f
5:40am 11 16 mph 1015.9mb - 42f
5:30am 9 13 mph 1015.8mb - 42f
5:20am 11 18 mph 1015.6mb - 42f
5:10am 9 18 mph 1015.5mb - 43f
5:00am 9 18 mph 1015.3mb 57f 43f
4:50am 9 18 mph 1015.3mb - 43f
4:40am 11 18 mph 1015.2mb - 43f
4:30am 11 16 mph 1015mb - 44f
4:20am 11 18 mph 1015mb - 44f
4:10am 9 13 mph 1014.9mb - 44f
4:00am 11 18 mph 1014.8mb 57f 44f
3:50am 11 16 mph 1014.7mb - 44f
3:40am 11 18 mph 1014.8mb - 44f
3:30am 11 18 mph 1014.7mb - 45f
3:20am 11 18 mph 1014.7mb - 45f
3:10am 11 18 mph 1014.6mb - 45f
3:00am 9 13 mph 1014.5mb 57f 45f
2:50am 9 18 mph 1014.3mb - 45f
2:40am 9 16 mph 1014.2mb - 45f
2:30am 7 9 mph 1014.1mb - 45f
2:20am 9 13 mph 1014mb - 45f
2:10am 9 13 mph 1013.9mb - 45f
2:00am 7 13 mph 1013.9mb 57f 46f
1:50am 7 11 mph 1013.9mb - 46f
1:40am 9 11 mph 1014mb - 46f
1:30am 7 13 mph 1014mb - 46f
1:20am 9 13 mph 1014mb - 46f
1:10am 7 11 mph 1014mb - 47f
1:00am 9 16 mph 1014mb 57f 47f
12:50am 11 16 mph 1013.8mb - 47f
12:40am 9 13 mph 1013.7mb - 47f
12:30am 9 13 mph 1013.6mb - 47f
12:20am 11 13 mph 1013.5mb - 47f
12:10am 11 13 mph 1013.4mb - 48f
12:00am 9 16 mph 1013.4mb 57f 48f
Thu 04/23 11:50pm 11 18 mph 1013.4mb - 48f
11:40pm 11 16 mph 1013.4mb - 48f
11:30pm 9 13 mph 1013.4mb - 49f
11:20pm 11 16 mph 1013.4mb - 49f
11:10pm 11 18 mph 1013.3mb - 49f
11:00pm 9 13 mph 1013.2mb 58f 50f
10:50pm 11 18 mph 1013.2mb - 50f
10:40pm 9 16 mph 1013.1mb - 50f
10:30pm 11 16 mph 1013.1mb - 50f
10:20pm 11 18 mph 1012.9mb - 50f
10:10pm 11 16 mph 1012.9mb - 51f
10:00pm 11 18 mph 1012.7mb 58f 51f
9:50pm 13 18 mph 1012.7mb - 51f
9:40pm 11 18 mph 1012.6mb - 51f
9:30pm 13 18 mph 1012.4mb - 52f
9:20pm 16 20 mph 1012.2mb - 52f
9:10pm 13 18 mph 1011.9mb - 53f
9:00pm 13 20 mph 1011.7mb 58f 53f
8:50pm 13 20 mph 1011.6mb - 54f
8:40pm 11 18 mph 1011.4mb - 54f
8:30pm 7 13 mph 1011.1mb - 55f
8:20pm 9 11 mph 1011mb - 55f
8:10pm 7 13 mph 1010.8mb - 55f
8:00pm 9 16 mph 1010.7mb 58f 55f
7:50pm 11 16 mph 1010.6mb - 55f
7:40pm 11 18 mph 1010.6mb - 55f
7:30pm 9 13 mph 1010.5mb - 56f
7:20pm 11 16 mph 1010.4mb - 56f
7:10pm 11 18 mph 1010.3mb - 56f
7:00pm 11 20 mph 1010.2mb 58f 56f
6:50pm 13 20 mph 1010.1mb - 56f
6:40pm 11 18 mph 1010.2mb - 57f
6:30pm 13 22 mph 1010.1mb - 56f
6:20pm 16 25 mph 1010mb - 56f
6:10pm 13 25 mph 1009.9mb - 56f
6:00pm 18 25 mph 1009.8mb 58f 56f
5:50pm 13 20 mph 1009.8mb - 57f
5:40pm 13 20 mph 1009.7mb - 57f
5:30pm 16 22 mph 1009.6mb - 57f
5:20pm 16 25 mph 1009.5mb - 57f
5:10pm 16 25 mph 1009.5mb - 57f
5:00pm 13 22 mph 1009.4mb 58f 57f
4:50pm 16 20 mph 1009.3mb - 57f
4:40pm 13 22 mph 1009.3mb - 57f
4:30pm 11 16 mph 1009.3mb - 56f
4:20pm 13 20 mph 1009.3mb - 56f
4:10pm 11 16 mph 1009.3mb - 56f
4:00pm 11 16 mph 1009.3mb 58f 56f
3:50pm 11 20 mph 1009.2mb - 56f
3:40pm 11 16 mph 1009.3mb - 56f
3:30pm 13 22 mph 1009.3mb - 56f
3:20pm 13 22 mph 1009.3mb - 56f
3:10pm 11 22 mph 1009.3mb - 56f
3:00pm 11 22 mph 1009.4mb 58f 56f
2:50pm 11 20 mph 1009.5mb - 55f
2:40pm 13 20 mph 1009.6mb - 55f
2:30pm 13 25 mph 1009.6mb - 55f
2:20pm 13 18 mph 1009.7mb - 55f
2:10pm 18 25 mph 1009.6mb - 55f
2:00pm 16 29 mph 1009.7mb 58f 55f
1:50pm 11 20 mph 1009.8mb - 55f
1:40pm 11 20 mph 1009.9mb - 54f
1:30pm 13 20 mph 1010mb - 54f
1:20pm 18 27 mph 1010mb - 54f
1:10pm 13 20 mph 1010.2mb - 54f
1:00pm 16 20 mph 1010.2mb 58f 53f
12:50pm 16 22 mph 1010.2mb - 53f
12:40pm 16 25 mph 1010.3mb - 53f
12:30pm 16 25 mph 1010.4mb - 53f
12:20pm 16 25 mph 1010.5mb - 53f
12:10pm 11 20 mph 1010.5mb - 53f
12:00pm 16 25 mph 1010.6mb 58f 53f
11:50am 18 27 mph 1010.6mb - 53f
11:40am 18 25 mph 1010.7mb - 53f
11:30am 18 22 mph 1010.8mb - 52f
11:20am 18 29 mph 1010.9mb - 52f
11:10am 16 29 mph 1010.9mb - 52f
11:00am 16 25 mph 1011mb 58f 52f
10:50am 18 29 mph 1011mb - 51f
10:40am 16 27 mph 1011mb - 51f
10:30am 16 25 mph 1011mb - 51f
10:20am 13 22 mph 1011.1mb - 51f
10:10am 16 22 mph 1011.2mb - 51f
10:00am 16 25 mph 1011.3mb 58f 50f
9:50am 16 22 mph 1011.3mb - 50f
9:40am 20 29 mph 1011.3mb - 50f
9:30am 18 27 mph 1011.3mb - 50f
9:20am 13 20 mph 1011.2mb - 51f
9:10am 16 22 mph 1011.3mb - 50f
9:00am 11 20 mph 1011.5mb 58f 50f
8:50am 9 13 mph 1011.5mb - 49f
8:40am 9 13 mph 1011.6mb - 49f
8:30am 9 13 mph 1011.5mb - 49f
8:20am 9 11 mph 1011.5mb - 49f
8:10am 7 9 mph 1011.4mb - 48f
8:00am 9 11 mph 1011.4mb 58f 47f
7:50am 7 9 mph 1011.4mb - 46f
7:40am 7 9 mph 1011.4mb - 46f
7:30am 7 9 mph 1011.3mb - 46f
7:20am 7 9 mph 1011.3mb - 46f
7:10am 7
mph
1011.3mb - 46f
7:00am 7 9 mph 1011.2mb 58f 46f
6:50am 4 7 mph 1011.1mb - 46f
6:40am 4 7 mph 1010.9mb - 46f
6:30am 4 7 mph 1010.8mb - 46f
6:20am 4 7 mph 1010.7mb - 46f
6:10am 4 7 mph 1010.7mb - 46f
6:00am 4 7 mph 1010.7mb 59f 46f
5:50am 4 7 mph 1010.7mb - 46f
5:40am 4 7 mph 1010.6mb - 46f
5:30am 4 7 mph 1010.5mb - 46f
5:20am 4 7 mph 1010.4mb - 47f
5:10am 4 9 mph 1010.4mb - 47f
5:00am 7 11 mph 1010.5mb 59f 47f
4:50am 7 16 mph 1010.5mb - 47f
4:40am 7 11 mph 1010.5mb - 47f
4:30am 9 13 mph 1010.5mb - 47f
4:20am 9 13 mph 1010.6mb - 47f
4:10am 9 13 mph 1010.6mb - 47f
4:00am 7 13 mph 1010.6mb 59f 48f
3:50am 7 11 mph 1010.5mb - 48f
3:40am 9 13 mph 1010.3mb - 48f
3:30am 9 16 mph 1010.3mb - 48f
3:20am 9 13 mph 1010.2mb - 48f
3:10am 7 13 mph 1010.1mb - 48f
3:00am 9 20 mph 1010mb 59f 48f
2:50am 13 20 mph 1009.8mb - 48f
2:40am 13 22 mph 1009.6mb - 49f
2:30am 13 25 mph 1009.5mb - 49f
2:20am 16 27 mph 1009.4mb - 49f
2:10am 16 27 mph 1009.4mb - 49f
2:00am 13 20 mph 1009.2mb 60f 50f
1:50am 18 31 mph 1008.9mb - 50f
1:40am 18 27 mph 1008.8mb - 51f
1:30am 20 31 mph 1008.9mb - 51f
1:20am 20 31 mph 1008.6mb - 52f
1:10am 16 27 mph 1008.7mb - 52f
1:00am 11 16 mph 1008.6mb 60f 52f
12:50am 11 18 mph 1008.8mb - 52f
12:40am 11 18 mph 1008.5mb - 53f
12:30am 7 11 mph 1008.4mb - 53f
12:20am 9 16 mph 1008.5mb - 53f
12:10am 7 13 mph 1008.5mb - 53f
12:00am 9 13 mph 1008.3mb 60f 53f
Wed 04/22 11:50pm 9 16 mph 1008.5mb - 53f
11:40pm 9 16 mph 1008.3mb - 53f
11:30pm 9 13 mph 1008.1mb - 53f
11:20pm 13 22 mph 1007.9mb - 54f
11:10pm 16 27 mph 1007.6mb - 54f
11:00pm 13 22 mph 1007.5mb 60f 55f
10:50pm 11 18 mph 1007.2mb - 55f
10:40pm 9 13 mph 1007.1mb - 55f
10:30pm 9 18 mph 1006.9mb - 56f
10:20pm 7 13 mph 1006.9mb - 56f
10:10pm 9 13 mph 1006.7mb - 56f
10:00pm 9 13 mph 1006.6mb 60f 56f
9:50pm 7 11 mph 1006.5mb - 56f
9:40pm 7 11 mph 1006.4mb - 56f
9:30pm 4 9 mph 1006.4mb - 57f
9:20pm 4 7 mph 1006.4mb - 57f
9:10pm 4 9 mph 1006.5mb - 57f
9:00pm 7 9 mph 1006.5mb 60f 57f
8:50pm 7 11 mph 1006.4mb - 57f
8:40pm 7 11 mph 1006.2mb - 57f
8:30pm 7 11 mph 1006.1mb - 57f
8:20pm 7 11 mph 1005.9mb - 57f
8:10pm 7 11 mph 1005.9mb - 58f
8:00pm 7 11 mph 1006mb 61f 58f
7:50pm 7 13 mph 1005.9mb - 58f
7:40pm 2 11 mph 1005.9mb - 58f
7:30pm 4 7 mph 1005.8mb - 57f
7:20pm 7 11 mph 1005.7mb - 57f
7:10pm 9 13 mph 1005.7mb - 58f
7:00pm 9 13 mph 1005.6mb 61f 58f
6:50pm 9 13 mph 1005.5mb - 59f
6:40pm 9 16 mph 1005.6mb - 59f
6:30pm 9 18 mph 1005.5mb - 59f
6:20pm 9 16 mph 1005.4mb - 59f
6:10pm 11 16 mph 1005.4mb - 58f
6:00pm 11 20 mph 1005.1mb 61f 59f
5:50pm 11 16 mph 1005.2mb - 59f
5:40pm 11 18 mph 1005.3mb - 58f
5:30pm 11 22 mph 1005.3mb - 58f
5:20pm 9 16 mph 1005.1mb - 58f
5:10pm 11 16 mph 1005.2mb - 58f
5:00pm 11 20 mph 1004.9mb 61f 59f
4:50pm 11 18 mph 1004.6mb - 58f